Regional Weather Roundup
Issued by NWS Jackson, KY

Home | Current Version | Previous Version | Graphics & Text | Print | Product List | Glossary On
Versions: 1 2 3 4 5 6 7 8 9 10 11 12 13 14 15 16 17 18 19 20 21 22 23 24 25 26
000
ASUS43 KJKL 240510
RWRJKL

EAST KENTUCKY HOURLY WEATHER ROUNDUP
NATIONAL WEATHER SERVICE JACKSON KY
100 AM EDT MON APR 24 2017

NOTE: "FAIR" INDICATES FEW OR NO CLOUDS BELOW 12,000 FEET WITH
NO SIGNIFICANT WEATHER AND/OR OBSTRUCTIONS TO VISIBILITY.

* THESE REPORTS ARE NOT UNDER NWS QUALITY CONTROL AND MAY NOT
  REPORT WEATHER SUCH AS PRECIPITATION AND FOG.

KYZ079-080-083-085-087-088-110-112-115-119-120-240600
...EASTERN KENTUCKY...

CITY           SKY/WX    TMP DP  RH WIND       PRES   REMARKS
JACKSON        LGT RAIN  51  49  92 CALM      29.90F
LONDON         CLOUDY    53  49  86 NE6       29.88S
SOMERSET*      CLOUDY    52  52 100 N3        29.89S
MONTICELLO*    CLOUDY    53  52  96 N15       29.88F FOG
WILLIAMSBURG*  CLOUDY    54  54 100 NE6       29.87S
MIDDLESBORO*   CLOUDY    54  50  85 CALM      29.87S
HARLAN APT*    CLOUDY    52  50  93 NE3       29.87S
PIKE CO APT*   CLOUDY    49  49 100 NE8       29.91F
BIG SANDY APT* CLOUDY    50  50 100 NE6       29.93F
MOREHEAD APT*  CLOUDY    55  45  67 E8G15     29.95F
ASHLAND*       CLOUDY    54  52  94 CALM      29.95R
$$

KYZ035-036-041-042-044-050-067-078-099-240600
...CENTRAL KENTUCKY...

CITY           SKY/WX    TMP DP  RH WIND       PRES   REMARKS
MT STERLING*   CLOUDY    54  46  76 E10G18    29.93F
FLEMING/MASON* CLOUDY    56  45  67 E9        29.95S
DANVILLE*      CLOUDY    52  48  87 E9        29.92S
LEXINGTON      CLOUDY    56  46  69 E7        29.92F
FRANKFORT      CLOUDY    58  45  62 N5        29.93S
LOUISVILLE     CLOUDY    60  43  53 NE6       29.94F
LEBANON*         N/A     55  48  76 N6        29.90F
GLASGOW*       CLOUDY    55  47  77 NE8       29.88S
BOWLING GREEN  CLOUDY    55  49  80 N7        29.89R
$$

KYZ091>093-OHZ055-061-077-WVZ005-015-034-035-042-240600
...SOUTHERN OHIO/WEST VIRGINIA...

CITY           SKY/WX    TMP DP  RH WIND       PRES   REMARKS
COVINGTON      CLOUDY    56  38  50 NE6       29.95S
COLUMBUS       PTCLDY    55  39  54 NE13      29.99F
DAYTON         CLEAR     48  37  65 NE9       30.00F
WILMINGTON     CLOUDY    49  39  68 NE13      29.97F
HUNTINGTON     CLOUDY    52  50  93 E3        29.94F
CHARLESTON     CLOUDY    53  49  86 CALM      29.96F
PINEVILLE*     LGT RAIN  49  47  93 MISG      29.99F
BECKLEY        LGT RAIN  46  43  89 SE14G20   29.96F
BLUEFIELD      LGT RAIN  42  41  96 E8        29.96F FOG
LOGAN CO APT*  CLOUDY    50  48  93 CALM      29.93F
$$

VAZ002-007-008-TNZ017-027-036-066-071-240600
...SOUTHWEST VIRGINIA/EAST TENNESSEE...

CITY           SKY/WX    TMP DP  RH WIND       PRES   REMARKS
WISE*          RAIN      46  46 100 NE5       29.89F
JONESVILLE*    CLOUDY    52  50  93 SE5       29.89S
ABINGDON*      LGT RAIN  47  46  96 E14       29.93F
BRISTOL        LGT RAIN  49  46  90 NE6G17    29.86F
MORRISTOWN*    PTCLDY    52  50  93 E7G14     29.82F
SEVIERVILLE*   MOCLDY    52  52 100 CALM      29.82R
KNOXVILLE      CLOUDY    54  51  90 N8        29.81S
LAFOLLETTE*    CLOUDY    54  52  94 CALM      29.88R
OAK RIDGE      CLOUDY    54  50  86 VRB3      29.84S
CROSSVILLE     CLOUDY    52  51  97 NE6       29.84S
NASHVILLE      CLOUDY    53  50  89 N8        29.86S
$$

...KEY TO REMARKS...
VSB - VISIBILITY IN MILES
WCI - WIND CHILL INDEX
HX  - HEAT INDEX

$$




USA.gov is the U.S. government's official web portal to all federal, state and local government web resources and services.